Previsão horária em Ablaevo

Hoje, 18 Maio, Terça-feira

Tempo Temperatura Precipitação Vento Pressão Humidade
00:00 +21°C° 0 mm 3 m/s 749 mmHg 50%
01:00 +20°C° 0 mm 3 m/s 749 mmHg 51%
02:00 +20°C° 0 mm 2 m/s 749 mmHg 57%
03:00 +19°C° 0 mm 2 m/s 749 mmHg 63%
04:00 +18°C° 0 mm 2 m/s 749 mmHg 69%
05:00 +19°C° 0 mm 2 m/s 749 mmHg 69%
06:00 +21°C° 0 mm 2 m/s 749 mmHg 68%
07:00 +23°C° 0 mm 2 m/s 749 mmHg 68%
08:00 +28°C° 0 mm 3 m/s 750 mmHg 44%
09:00 +27°C° 0 mm 3 m/s 750 mmHg 48%
10:00 +27°C° 0 mm 3 m/s 750 mmHg 51%
11:00 +27°C° 0 mm 3 m/s 750 mmHg 48%
12:00 +28°C° 0 mm 3 m/s 750 mmHg 45%
13:00 +29°C° 0 mm 3 m/s 750 mmHg 42%
14:00 +28°C° 0 mm 4 m/s 750 mmHg 41%
15:00 +28°C° 0 mm 4 m/s 750 mmHg 41%
16:00 +28°C° 0 mm 4 m/s 750 mmHg 41%
17:00 +26°C° 0 mm 4 m/s 750 mmHg 46%
18:00 +25°C° 0 mm 5 m/s 750 mmHg 51%
19:00 +23°C° 0 mm 5 m/s 750 mmHg 56%
20:00 +21°C° 0 mm 4 m/s 750 mmHg 60%
21:00 +20°C° 0 mm 4 m/s 750 mmHg 65%
22:00 +18°C° 0 mm 3 m/s 750 mmHg 69%
23:00 +18°C° 0 mm 3 m/s 750 mmHg 71%

Amanhã, 19 Maio, Quarta-feira

Tempo Temperatura Precipitação Vento Pressão Humidade
00:00 +17°C° 0 mm 3 m/s 750 mmHg 74%
01:00 +16°C° 0 mm 3 m/s 750 mmHg 76%
02:00 +14°C° 0 mm 3 m/s 751 mmHg 79%
03:00 +14°C° 0 mm 4 m/s 751 mmHg 82%
04:00 +13°C° 0 mm 4 m/s 751 mmHg 85%
05:00 +14°C° 0 mm 4 m/s 751 mmHg 81%
06:00 +15°C° 0 mm 5 m/s 751 mmHg 77%
07:00 +15°C° 0 mm 5 m/s 751 mmHg 73%
08:00 +17°C° 0 mm 5 m/s 752 mmHg 67%
09:00 +20°C° 0 mm 5 m/s 752 mmHg 61%
10:00 +21°C° 0 mm 5 m/s 752 mmHg 56%
11:00 +22°C° 0 mm 5 m/s 752 mmHg 51%
12:00 +23°C° 0 mm 5 m/s 752 mmHg 47%
13:00 +26°C° 0 mm 5 m/s 752 mmHg 43%
14:00 +26°C° 0 mm 5 m/s 752 mmHg 41%
15:00 +26°C° 0 mm 4 m/s 752 mmHg 39%
16:00 +26°C° 0 mm 4 m/s 752 mmHg 37%
17:00 +25°C° 0 mm 4 m/s 752 mmHg 42%
18:00 +24°C° 0 mm 3 m/s 752 mmHg 48%
19:00 +23°C° 0 mm 2 m/s 752 mmHg 53%
20:00 +21°C° 0 mm 2 m/s 752 mmHg 54%
21:00 +19°C° 0 mm 2 m/s 752 mmHg 56%
22:00 +18°C° 0 mm 2 m/s 752 mmHg 58%
23:00 +17°C° 0 mm 3 m/s 752 mmHg 59%

Depois de amanhã, 20 Maio, Quinta-feira

Tempo Temperatura Precipitação Vento Pressão Humidade
00:00 +17°C° 0 mm 3 m/s 752 mmHg 61%
01:00 +16°C° 0 mm 3 m/s 752 mmHg 63%
02:00 +16°C° 0 mm 3 m/s 753 mmHg 64%
03:00 +14°C° 0 mm 3 m/s 753 mmHg 64%
04:00 +13°C° 0 mm 3 m/s 753 mmHg 65%
05:00 +14°C° 0 mm 3 m/s 753 mmHg 62%
06:00 +15°C° 0 mm 4 m/s 754 mmHg 60%
07:00 +17°C° 0 mm 4 m/s 754 mmHg 57%
08:00 +19°C° 0 mm 4 m/s 754 mmHg 52%
09:00 +20°C° 0 mm 4 m/s 754 mmHg 47%
10:00 +22°C° 0 mm 4 m/s 754 mmHg 41%
11:00 +23°C° 0 mm 4 m/s 754 mmHg 40%
12:00 +23°C° 0 mm 4 m/s 754 mmHg 38%
13:00 +25°C° 0 mm 4 m/s 753 mmHg 36%
14:00 +25°C° 0 mm 4 m/s 753 mmHg 36%
15:00 +25°C° 0 mm 4 m/s 753 mmHg 36%
16:00 +26°C° 0 mm 4 m/s 753 mmHg 36%
17:00 +25°C° 0 mm 3 m/s 753 mmHg 41%
18:00 +24°C° 0 mm 2 m/s 752 mmHg 46%
19:00 +23°C° 0 mm 2 m/s 752 mmHg 51%
20:00 +22°C° 0 mm 1 m/s 752 mmHg 52%
21:00 +20°C° 0 mm 1 m/s 752 mmHg 53%
22:00 +19°C° 0 mm 1 m/s 752 mmHg 54%
23:00 +18°C° 0 mm 1 m/s 752 mmHg 56%

21 Maio, Sexta-feira

Tempo Temperatura Precipitação Vento Pressão Humidade
00:00 +18°C° 0 mm 1 m/s 752 mmHg 57%
01:00 +16°C° 0 mm 1 m/s 753 mmHg 58%
02:00 +16°C° 0 mm 1 m/s 753 mmHg 59%
03:00 +15°C° 0 mm 2 m/s 753 mmHg 60%
04:00 +15°C° 0 mm 2 m/s 753 mmHg 61%
05:00 +16°C° 0 mm 2 m/s 753 mmHg 60%
06:00 +17°C° 0 mm 3 m/s 753 mmHg 58%
07:00 +19°C° 0 mm 4 m/s 753 mmHg 57%
08:00 +20°C° 0 mm 4 m/s 753 mmHg 52%
09:00 +22°C° 0 mm 5 m/s 753 mmHg 47%
10:00 +23°C° 0 mm 5 m/s 753 mmHg 41%
11:00 +25°C° 0 mm 5 m/s 753 mmHg 39%
12:00 +26°C° 0 mm 5 m/s 753 mmHg 37%
13:00 +26°C° 0 mm 5 m/s 753 mmHg 35%
14:00 +26°C° 0 mm 5 m/s 753 mmHg 35%
15:00 +27°C° 0 mm 5 m/s 753 mmHg 35%
16:00 +27°C° 0 mm 5 m/s 753 mmHg 34%
17:00 +26°C° 0 mm 4 m/s 753 mmHg 40%
18:00 +23°C° 0 mm 4 m/s 753 mmHg 46%
19:00 +22°C° 0 mm 3 m/s 752 mmHg 52%
20:00 +21°C° 0 mm 3 m/s 753 mmHg 54%
21:00 +19°C° 0 mm 3 m/s 753 mmHg 56%
22:00 +18°C° 0 mm 3 m/s 753 mmHg 58%
23:00 +17°C° 0 mm 3 m/s 753 mmHg 58%

22 Maio, Sábado

Tempo Temperatura Precipitação Vento Pressão Humidade
00:00 +17°C° 0 mm 3 m/s 753 mmHg 59%
01:00 +16°C° 0 mm 3 m/s 753 mmHg 60%
02:00 +16°C° 0 mm 3 m/s 753 mmHg 60%
03:00 +16°C° 0 mm 3 m/s 753 mmHg 60%
04:00 +16°C° 0 mm 3 m/s 753 mmHg 60%
05:00 +17°C° 0 mm 3 m/s 754 mmHg 59%
06:00 +18°C° 0 mm 3 m/s 754 mmHg 57%
07:00 +19°C° 0 mm 3 m/s 754 mmHg 56%
08:00 +21°C° 0 mm 2 m/s 754 mmHg 54%
09:00 +24°C° 0 mm 2 m/s 754 mmHg 51%
10:00 +25°C° 0 mm 2 m/s 754 mmHg 49%
11:00 +26°C° 0 mm 3 m/s 754 mmHg 46%
12:00 +27°C° 0 mm 3 m/s 754 mmHg 44%
13:00 +28°C° 0 mm 3 m/s 754 mmHg 41%
14:00 +28°C° 0 mm 3 m/s 754 mmHg 40%
15:00 +28°C° 0 mm 4 m/s 754 mmHg 39%
16:00 +28°C° 0 mm 4 m/s 754 mmHg 38%
17:00 +25°C° 0 mm 4 m/s 751 mmHg 54%
18:00 +24°C° 0 mm 3 m/s 751 mmHg 59%
19:00 +22°C° 0 mm 3 m/s 750 mmHg 64%
20:00 +22°C° 0 mm 4 m/s 750 mmHg 63%
21:00 +22°C° 0 mm 4 m/s 750 mmHg 62%
22:00 +21°C° 0 mm 5 m/s 750 mmHg 61%
23:00 +21°C° 0 mm 5 m/s 750 mmHg 61%

23 Maio, Domingo

Tempo Temperatura Precipitação Vento Pressão Humidade
00:00 +21°C° 0 mm 5 m/s 749 mmHg 62%
01:00 +20°C° 0 mm 5 m/s 749 mmHg 62%
02:00 +19°C° 0.1 mm 4 m/s 749 mmHg 69%
03:00 +18°C° 0.1 mm 3 m/s 749 mmHg 76%
04:00 +17°C° 0.1 mm 3 m/s 750 mmHg 83%
05:00 +17°C° 0 mm 2 m/s 750 mmHg 83%
06:00 +19°C° 0 mm 1 m/s 750 mmHg 82%
07:00 +19°C° 0 mm 1 m/s 750 mmHg 82%
08:00 +21°C° 0 mm 1 m/s 750 mmHg 76%
09:00 +22°C° 0 mm 1 m/s 750 mmHg 71%
10:00 +23°C° 0 mm 1 m/s 750 mmHg 66%
11:00 +25°C° 0 mm 2 m/s 751 mmHg 61%
12:00 +26°C° 0 mm 3 m/s 751 mmHg 56%
13:00 +27°C° 0 mm 4 m/s 751 mmHg 51%
14:00 +26°C° 0 mm 4 m/s 751 mmHg 57%
15:00 +25°C° 0 mm 4 m/s 751 mmHg 62%
16:00 +23°C° 0 mm 4 m/s 751 mmHg 67%
17:00 +22°C° 0.1 mm 4 m/s 751 mmHg 72%
18:00 +20°C° 0.1 mm 4 m/s 751 mmHg 78%
19:00 +19°C° 0.1 mm 4 m/s 751 mmHg 83%
20:00 +18°C° 0.2 mm 3 m/s 751 mmHg 86%
21:00 +17°C° 0.2 mm 3 m/s 752 mmHg 89%
22:00 +16°C° 0.2 mm 2 m/s 752 mmHg 91%
23:00 +16°C° 0 mm 2 m/s 752 mmHg 90%
Mostrar mais

Necessitamos do seu Consentimento

A Meteoprog e os seus Fornecedores de Serviços podem armazenar e aceder a dados pessoais como cookies, identificadores do dispositivo ou outras tecnologias semelhantes existentes no seu dispositivo e processar estes dados para personalizar conteúdos e anúncios, assim como funcionalidades nas redes sociais e análise de tráfego.

  • Armazenar e/ou aceder a informações no seu dispositivo

    Os cookies, identificadores do dispositivo ou outras informações podem ser armazenados ou acedidos no seu dispositivo, para os fins acima indicados.

  • Anúncios e conteúdos personalizados, medição de anúncios e conteúdos, dados sobre o público-alvo e desenvolvimento de produtos

    Os anúncios e os conteúdos podem ser personalizados com base num perfil. Podem ser adicionados dados adicionais para uma maior personalização dos anúncios e dos conteúdos. A eficácia dos anúncios e dos conteúdos pode ser medida. Podem ser obtidas informações sobre o público que visualizou os anúncios e os conteúdos. Estes dados podem ser usados para desenvolver ou melhorar sistemas, softwares ou a experiência do utilizador.

Ao clicar em "Eu concordo”, permitirá o uso de cookies, identificadores do dispositivo e web beacons mencionados ou outras tecnologias semelhantes. As configurações do navegador do seu dispositivo podem ser alteradas.

Para certos fins, podem ser invocados interesses legítimos ao invés de consentimento. Pode ler mais informação sobre este assunto na nossa Política de Privacidade e Cookies.